www.pogodaiklimat.ru

Погода и климат >> Архив погоды >> Антарктида >> S.a.n.a.e. aws


ПОГОДА в S.a.n.a.e. aws

  • Прогноз погоды в S.a.n.a.e. aws
  • Монитор погоды в S.a.n.a.e. aws
  • Климат города

АРХИВ ПОГОДЫ в S.a.n.a.e. aws

Время (UTC), дата Ветер
(напр.,м/с)
 
Видим.   Явления Облачность Т
(С)
Тd
(С)
f
(%)
Тe
(С)
Тes
(С)
Комфортность P
(гПа)
Po
(гПа)
Тmin
(С)
Tmax
(С)
R
(мм)
R24
(мм)
S
(см)
21 10.10 В 10 н/о н/о -19.1 -28.0 45 -32 -32 опасность
обморожения
991.2 885.2 -19.6 -16.9
00 11.10 В 9 н/о н/о -19.0 -25.9 54 -32 -32 опасность
обморожения
990.9 885.0 -20.5 -16.9
03 11.10 В 9 н/о н/о -19.1 -25.0 60 -32 -32 опасность
обморожения
991.0 885.0 -20.5 -16.9
06 11.10 В 9 30 км позёмок {метель} 9/1 1000 м
[Sc Ac As]
-20.3 -25.8 61 -34 -34 опасность
обморожения
991.4 884.9 -20.5
09 11.10 В 9 30 км {метель} 9/0 1500 м
[Ac As]
-19.2 -26.1 54 -32 -32 опасность
обморожения
990.0 884.1 -21.2 -19.2
12 11.10 В 8 40 км {метель} 5/5 1000 м
[Sc Ci fib]
-16.5 -25.6 45 -28 -28 989.0 884.2 -21.2 -16.5
15 11.10 В 11 н/о н/о -19.2 -26.1 54 -33 -33 опасность
обморожения
988.7 882.9 -19.2 -16.4
18 11.10 В 9 40 км 6/1 1000 м
[Sc Ac As Cs]
-20.9 -29.2 47 -34 -34 опасность
обморожения
989.9 883.3 -21.3 -16.4
00 12.10 В 10 н/о н/о -21.8 -30.5 45 -36 -36 опасность
обморожения
990.6 883.6 -22.6 -16.4
03 12.10 В 10 н/о н/о -21.3 -30.0 45 -35 -35 опасность
обморожения
989.5 882.8 -22.9 -16.4
06 12.10 В 13 30 км метель 8/0 2000 м
[Cs]
-22.7 -29.0 56 -39 -39 опасность
обморожения
990.1 882.8 -22.9
09 12.10 В 11 30 км метель 8/0 2000 м
[Cs]
-21.5 -27.9 56 -36 -36 опасность
обморожения
989.6 882.8 -22.9 -20.5
12 12.10 В 10 30 км {метель} 8/0 2000 м
[Cs]
-19.1 -28.2 44 -32 -32 опасность
обморожения
986.5 881.0 -22.9 -19.1
15 12.10 ЮВ 10 н/о н/о -18.9 -26.0 53 -32 -32 опасность
обморожения
984.5 879.3 -20.1 -17.8
18 12.10 В 14 20 км метель 8/0 2000 м
[Cs]
-18.5 -26.7 48 -33 -33 опасность
обморожения
982.4 877.6 -20.1 -17.6
21 12.10 В 9 н/о н/о -19.3 -29.2 41 -32 -32 опасность
обморожения
982.2 877.1 -20.1 -17.6
00 13.10 В 9 н/о н/о -18.9 -28.3 43 -31 -31 опасность
обморожения
981.5 876.6 -20.1 -17.6
03 13.10 ЮВ 9 н/о н/о -20.6 -29.4 45 -34 -34 опасность
обморожения
981.8 876.2 -20.8 -17.6
06 13.10 ЮВ 11 30 км позёмок {метель} 8/1 1000 м
[Sc Cs]
-22.1 -30.8 45 -37 -37 опасность
обморожения
981.5 875.4 -22.3
09 13.10 ЮВ 9 30 км {метель} 8/1 1000 м
[Sc Cs]
-18.8 -27.5 46 -32 -31 опасность
обморожения
980.5 875.8 -22.3 -18.2
12 13.10 В 9 30 км {метель} 5/1 1000 м
[Sc Cs]
-16.2 -26.3 41 -28 -28 979.0 875.4 -22.3 -15.3
15 13.10 ЮВ 10 н/о н/о -17.3 -25.4 49 -30 -30 977.8 873.9 -17.7 -15.2
18 13.10 ЮВ 11 20 км позёмок {метель} 9/9 1000 м
[Sc]
-17.0 -24.9 50 -30 -30 977.4 873.7 -18.0 -15.2
21 13.10 В 10 н/о н/о -14.6 -21.3 57 -27 -27 976.8 874.0 -18.0 -13.7
00 14.10 В 9 н/о н/о -13.7 -19.8 60 -25 -25 977.4 874.9 -18.0 -13.2
03 14.10 ЮВ 8 н/о н/о -14.7 -19.9 65 -25 -25 978.1 875.2 -18.0 -13.2
06 14.10 ЮВ 8 20 км 9/9 600 м
[Sc]
-15.5 -20.6 65 -26 -26 979.7 876.3 -18.0
09 14.10 ЮВ 7 н/о н/о -14.0 -19.7 62 -24 -24 980.4 877.5 -18.0 -12.8
12 14.10 ЮВ 11 20 км 9/9 600 м
[Cu Sc]
-14.1 -19.5 64 -26 -26 979.9 877.0 -18.0 -12.8
15 14.10 В 9 н/о н/о -13.5 -20.9 54 -25 -25 980.4 877.7 -14.7 -12.7
18 14.10 В 6 20 км 9/9 1000 м
[Sc]
-13.3 -21.2 51 -22 -22 981.7 878.9 -14.7 -12.5
21 14.10 В 7 20 км 10/10 600 м
[Sc]
-14.2 -21.8 52 -24 -24 983.3 880.0 -15.7 -12.5
00 15.10 ЮВ 7 н/о н/о -15.7 -24.1 48 -26 -26 984.9 880.9 -16.7 -12.5
03 15.10 В 6 н/о н/о -15.6 -22.3 56 -25 -25 986.3 882.2 -17.5 -12.5
06 15.10 В 6 30 км 9/8 600 м
[Sc Ac As Ci sp]
-16.7 -23.1 58 -27 -27 988.7 883.9 -18.3
09 15.10 В 6 н/о н/о -15.6 -23.1 53 -25 -25 990.7 886.1 -18.3 -14.9
12 15.10 В 6 20 км 9/9 600 м
[Sc]
-14.7 -22.0 54 -24 -24 992.2 887.8 -18.3 -14.3
15 15.10 В 5 н/о н/о -15.1 -21.4 59 -24 -24 994.0 889.2 -15.5 -13.5
18 15.10 В 7 20 км 9/9 1000 м
[Sc]
-16.3 -21.6 64 -27 -27 996.9 891.4 -16.7 -13.5
21 15.10 В 8 20 км 9/9 600 м
[Sc]
-17.7 -23.5 60 -30 -30 999.2 892.9 -17.8 -13.5
00 16.10 В 8 н/о н/о -16.0 -23.5 52 -27 -27 1000.0 894.3 -17.9 -13.5
03 16.10 В 11 н/о н/о -17.2 -24.0 55 -31 -31 опасность
обморожения
1000.8 894.5 -17.9 -13.5
06 16.10 В 15 20 км 9/9 1000 м
[Sc]
-15.2 -23.6 49 -29 -29 999.4 894.0 -17.9
09 16.10 В 17 5000 м метель 10/1 1000 м
[Sc As trans]
-14.9 -21.4 58 -30 -30 998.7 893.5 -17.9 -14.5
12 16.10 В 18 <100 м слабый снег 10/0 1000 м
[As op]
-14.8 -16.7 85 -30 -30 999.1 893.9 -17.9 -14.3
15 16.10 В 19 н/о н/о -15.6 -17.5 85 -31 -31 опасность
обморожения
997.6 892.3 -16.6 -14.3
18 16.10 В 23 <100 м слабый снег 10/0 1000 м
[As op]
-14.3 -16.1 86 -30 -30 995.8 891.1 -16.6 -13.7
21 16.10 В 25 <100 м слабый снег 10/0 1000 м
[As op]
-13.3 -14.8 88 -29 -29 993.5 889.5 -16.6 -12.5
00 17.10 СВ 26 н/о н/о -12.9 -14.4 88 -29 -29 993.4 889.5 -16.6 -12.0
03 17.10 СВ 22 н/о н/о -11.9 -13.3 89 -27 -27 993.8 890.2 -16.6 -11.4
06 17.10 СВ 21 <100 м снег 10/0 600 м
[As op]
-11.9 -13.3 89 -26 -26 998.0 894.0 -16.6
09 17.10 СВ 17 <100 м слабый снег 10/0 1000 м
[As op]
-11.7 -13.1 89 -25 -25 1001.3 897.0 -16.6 -10.8
12 17.10 СВ 16 <100 м слабый снег 10/0 1000 м
[As op]
-12.0 -13.4 89 -25 -25 1003.4 898.8 -16.6 -10.7

 

Местоположение метеостанции S.a.n.a.e. aws (Антарктида): широта -71.70 долгота -2.80 высота над уровнем моря 817 м.

В архиве по умолчанию представлена погода в S.a.n.a.e. aws за последнюю неделю. Архивные данные за месяц целиком и за предыдущие месяцы, начиная с января 2011 года, Вы можете получить, выбрав интересующий диапазон дат из раскрывающегося списка и нажав кнопку "Ввод!".

Внимание! Время в таблицах - всемирное. Для получения местного времени необходимо прибавить поправку, которая в S.a.n.a.e. aws равна 0 ч.

Смотрите также архив погоды в соседних городах и на ближайших метеорологических станциях:

Погода в Troll (Антарктида) (183 км)
Погода в Neumayer (Антарктида) (227 км)
Погода в Kohnen Ep9 (Антарктида) (378 км)
Погода в Nordenskiold Base (Антарктида) (386 км)
Погода в Maitri (Антарктида) (530 км)
Погода в Novolazarevskaja (Антарктида) (532 км)
Погода в Halley (Антарктида) (851 км)
Погода в Base Belgrano Ii (Антарктида) (1130 км)
Погода в Relay Station (Антарктида) (1487 км)
Погода в Syowa (Антарктида) (1578 км)

Пояснения к столбцам:

Ветер - указаны скорость ветра в м/с - средняя за 10 мин, порывы в срок и между сроками (в фигурных скобках) и направление, откуда дует ветер: С - северный, СВ - северо-восточный, В - восточный, ЮВ - юго-восточный, Ю - южный, ЮЗ - юго-западный, З - западный, СЗ - северо-западный.
Видимость - горизонтальная дальность видимости в метрах или километрах. При видимости от 1 до 10 км при отсутствии осадков обычно наблюдается дымка, при ухудшении видимости до 1 км и менее - туман. В сухую погоду видимость может ухудшаться дымом, пылью или мглою.
Явления - указаны атмосферные явления, наблюдавшиеся в срок или в последний час перед сроком; фигурными скобками обозначены явления, наблюдавшиеся между сроками (за 1-3 часа до срока); квадратными скобками обозначены град или гололедные отложения с указанием их диаметра в мм.
Облачность - указаны через наклонную черту общая и нижняя облачность в баллах и высота нижней границы облаков в метрах; квадратными скобками обозначены формы облаков: Ci - перистые, Cs - перисто-слоистые, Cc - перисто-кучевые, Ac - высококучевые, As - высокослоистые, Sc - слоисто-кучевые, Ns - слоисто-дождевые, Cu - кучевые, Cb - кучево-дождевые. Подробнее классификацию облаков см. в Атласе облаков (PDF).
T - Температура воздуха - температура, измеренная на высоте 2 м над землей.
Td - Температура точки росы - температура, при понижении до которой содержащийся в воздухе водяной пар достигнет насыщения.
f - Относительная влажность воздуха - влажноcть воздуха, измеренная на высоте 2 м над землей.
Te - Эффективная температура - температура, которую ощущает одетый по сезону человек в тени. Характеристика душности погоды. При расчете учитывается влияние влажности воздуха и скорости ветра на теплоощущения человека.
Tes - Эффективная температура на солнце - температура, которую ощущает человек, с поправкой на солнечный нагрев. Характеристика знойности погоды. Зависит от высоты солнца над горизонтом, облачности и скорости ветра. Ночью, в пасмурную погоду, а также при ветре 12 м/с и более поправка равна нулю.
P - Атмосферное давление - приведенное к уровню моря атмосферное давление.
Po - Атмосферное давление - измеренное на уровне метеостанции атмосферное давление.
Tmin - Минимальная температура - минимум температуры воздуха на высоте 2 м над землей.
Tmax - Максимальная температура - максимум температуры воздуха на высоте 2 м над землей.
R - Количество осадков - Количество выпавших осадков за период времени, мм. При наведении курсора мыши на число - период времени, за который выпало указанное количество осадков.
R24 - Количество осадков - Количество выпавших осадков за 24 часа, мм.
S - Снежный покров - Высота снежного покрова, см. При наведении курсора мыши на число - состояние снежного покрова и степень покрытия местности в баллах.